User: anonymous   Login
Location: Caltech
(34.1382°N, 118.1253°W)
Time: 19:11:05
(UTC-07:00)
Language:

Cosmos 2219 - Orbit

View from above orbital plane
View from above orbital plane
View from above satellite
View from above satellite

Ground track
Ground track

The orbit data is extracted from the following two-line orbital elements,

1 22219U 92076A   17234.57425819 -.00000253 +00000-0 -10890-3 0  9991
2 22219 071.0584 059.0475 0020340 285.1645 074.7228 14.13608613277271
Epoch (UTC): 22 August 2017 13:46:55
Eccentricity: 0.0020340
inclination: 71.0584°
perigee height: 832 km
apogee height: 862 km
right ascension of ascending node: 59.0475°
argument of perigee: 285.1645°
revolutions per day: 14.13608613
mean anomaly at epoch: 74.7228°
orbit number at epoch: 27727

The dashed part of the orbit path shows where the satellite is in the earth's shadow,  

DLR